Location: Moy Burn
(57.3833°N, 4.0667°W)
Time: 12:22:40
(UTC+00:00)

SL-16 R/B - Pass Details

Date: 08 August 2020
Orbit: 843 x 845 km, 71.0° (Epoch: 21 September)

Event Time Altitude Azimuth Distance (km) Brightness Sun altitude
Rises 21:30:35 0° 322° (NW) 3,418 7.8 -8.7°
Reaches altitude 10° 21:33:03 10° 325° (NW) 2,480 6.3 -8.9°
Maximum altitude 21:38:45 72° 50° (NE) 894 2.4 -9.4°
Enters shadow 21:43:58 12° 134° (SE) 2,299 3.8 -9.8°
